This is the latest recevied weather packets stored in our database for station/object K7LDN-13. If no packets are shown the sender has not sent any weather packets the latest 10 day(s).
| Time | Temp. | Humidity | Pressure | Rain* | Wind** | Luminosity | Snow |
|---|---|---|---|---|---|---|---|
| 1777311165 | 3.89° C | 93% | 1016.1 hPa | 0.51 mm | - | 96 W/m² | - |
| 1777310864 | 3.89° C | 93% | 1016.2 hPa | 0.51 mm | - | 68 W/m² | - |
| 1777310258 | 3.89° C | 93% | 1016.1 hPa | 0 mm | - | 80 W/m² | - |
| 1777309350 | 3.89° C | 93% | 1016.2 hPa | 0.51 mm | - | 123 W/m² | - |
| 1777308440 | 3.89° C | 93% | 1015.8 hPa | 0 mm | - | 167 W/m² | - |
| 1777307833 | 3.89° C | 93% | 1015.8 hPa | 0.51 mm | - | 173 W/m² | - |
| 1777306924 | 4.44° C | 93% | 1015.6 hPa | 1.27 mm | - | 189 W/m² | - |
| 1777306316 | 4.44° C | 93% | 1015.6 hPa | 1.27 mm | - | 172 W/m² | - |
| 1777306012 | 4.44° C | 93% | 1015.5 hPa | 1.78 mm | - | 140 W/m² | - |
| 1777305709 | 4.44° C | 93% | 1015.6 hPa | 2.29 mm | - | 115 W/m² | - |
| 1777305405 | 4.44° C | 92% | 1015.5 hPa | 2.29 mm | - | 125 W/m² | - |
| 1777304492 | 5° C | 91% | 1015.5 hPa | 0.51 mm | - | 50 W/m² | - |
| 1777304190 | 5° C | 91% | 1015.4 hPa | 0.51 mm | - | 47 W/m² | - |
| 1777303886 | 5.56° C | 91% | 1015.4 hPa | 0 mm | - | 51 W/m² | - |
| 1777303583 | 5.56° C | 91% | 1015.3 hPa | 0 mm | - | 48 W/m² | - |
| 1777303281 | 5.56° C | 91% | 1015.4 hPa | 0 mm | - | 47 W/m² | - |
| 1777302674 | 5.56° C | 90% | 1015.3 hPa | 0 mm | - | 40 W/m² | - |
| 1777301466 | 5.56° C | 90% | 1014.9 hPa | 0 mm | - | 72 W/m² | - |
| 1777300557 | 5.56° C | 88% | 1014.9 hPa | 0 mm | - | 62 W/m² | - |
| 1777300255 | 6.11° C | 88% | 1014.8 hPa | 0 mm | - | 55 W/m² | - |
| 1777299950 | 5.56° C | 87% | 1014.8 hPa | 0 mm | - | 34 W/m² | - |
| 1777299648 | 5.56° C | 87% | 1014.8 hPa | 0 mm | - | 39 W/m² | - |
| 1777299346 | 5.56° C | 87% | 1014.7 hPa | 0 mm | - | 52 W/m² | - |
| 1777299043 | 5.56° C | 87% | 1014.6 hPa | 0 mm | - | 50 W/m² | - |
| 1777298740 | 5.56° C | 88% | 1014.6 hPa | 0 mm | - | 57 W/m² | - |
* Rain latest hour (hover to see other rain measurements)
** Current wind speed in m/s (hover to see current wind gust speed)